Time,TemperatureF,DewpointF,PressureIn,WindDirection,WindDirectionDegrees,WindSpeedMPH,WindSpeedGustMPH,Humidity,HourlyPrecipIn,Conditions,Clouds,dailyrainin,SoftwareType,DateUTC
2013-05-10 00:01:00,55.4,54.0,30.05,West,276,0.0,0.0,95,0.00,,,0.00,Wunderground v.1.15,2013-05-10 04:01:00,
2013-05-10 00:06:00,55.2,54.1,30.05,West,276,0.0,0.0,96,0.00,,,0.00,Wunderground v.1.15,2013-05-10 04:06:00,
2013-05-10 00:11:00,55.1,54.0,30.05,West,276,0.0,0.0,96,0.00,,,0.00,Wunderground v.1.15,2013-05-10 04:11:00,
2013-05-10 00:16:00,55.1,54.0,30.05,West,276,0.0,0.0,96,0.00,,,0.00,Wunderground v.1.15,2013-05-10 04:16:00,
2013-05-10 00:21:00,55.0,53.9,30.05,West,276,0.0,0.0,96,0.00,,,0.00,Wunderground v.1.15,2013-05-10 04:21:00,
2013-05-10 00:26:00,54.9,53.8,30.04,West,276,0.0,0.0,96,0.00,,,0.00,Wunderground v.1.15,2013-05-10 04:26:00,
2013-05-10 00:31:00,54.8,53.7,30.04,West,276,0.0,0.0,96,0.00,,,0.00,Wunderground v.1.15,2013-05-10 04:31:00,
2013-05-10 00:36:00,54.7,53.6,30.04,West,276,0.0,0.0,96,0.00,,,0.00,Wunderground v.1.15,2013-05-10 04:36:00,
2013-05-10 00:41:00,54.5,53.4,30.04,West,276,0.0,0.0,96,0.00,,,0.00,Wunderground v.1.15,2013-05-10 04:41:00,
2013-05-10 00:46:00,54.3,53.2,30.05,West,276,0.0,0.0,96,0.00,,,0.00,Wunderground v.1.15,2013-05-10 04:46:00,
2013-05-10 00:51:00,54.4,53.6,30.05,West,276,0.0,0.0,97,0.00,,,0.00,Wunderground v.1.15,2013-05-10 04:51:00,
2013-05-10 00:56:00,54.2,53.4,30.04,West,276,0.0,0.0,97,0.00,,,0.00,Wunderground v.1.15,2013-05-10 04:56:00,
2013-05-10 01:01:00,54.2,53.4,30.05,West,276,0.0,0.0,97,0.00,,,0.00,Wunderground v.1.15,2013-05-10 05:01:00,
2013-05-10 01:06:00,54.2,53.4,30.05,West,276,0.0,0.0,97,0.00,,,0.00,Wunderground v.1.15,2013-05-10 05:06:00,
2013-05-10 01:11:00,54.2,53.4,30.05,West,276,0.0,0.0,97,0.00,,,0.00,Wunderground v.1.15,2013-05-10 05:11:00,
2013-05-10 01:16:00,54.1,53.3,30.05,West,276,0.0,0.0,97,0.00,,,0.00,Wunderground v.1.15,2013-05-10 05:16:00,
2013-05-10 01:21:00,54.1,53.3,30.05,West,276,0.0,1.0,97,0.00,,,0.00,Wunderground v.1.15,2013-05-10 05:21:00,
2013-05-10 01:26:00,54.1,53.3,30.05,West,276,0.0,1.0,97,0.00,,,0.00,Wunderground v.1.15,2013-05-10 05:26:00,
2013-05-10 01:31:00,54.0,53.2,30.04,West,276,0.0,0.0,97,0.00,,,0.00,Wunderground v.1.15,2013-05-10 05:31:00,
2013-05-10 01:36:00,53.8,53.0,30.04,West,276,0.0,0.0,97,0.00,,,0.00,Wunderground v.1.15,2013-05-10 05:36:00,
2013-05-10 01:41:00,53.7,52.9,30.04,West,276,0.0,0.0,97,0.00,,,0.00,Wunderground v.1.15,2013-05-10 05:41:00,
2013-05-10 01:46:00,53.6,52.8,30.04,West,276,0.0,0.0,97,0.00,,,0.00,Wunderground v.1.15,2013-05-10 05:46:00,
2013-05-10 01:51:00,53.3,52.5,30.04,West,276,0.0,0.0,97,0.00,,,0.00,Wunderground v.1.15,2013-05-10 05:51:00,
2013-05-10 01:56:00,53.2,52.4,30.04,West,276,0.0,0.0,97,0.00,,,0.00,Wunderground v.1.15,2013-05-10 05:56:00,
2013-05-10 02:01:00,53.2,52.4,30.04,West,276,0.0,0.0,97,0.00,,,0.00,Wunderground v.1.15,2013-05-10 06:01:00,
2013-05-10 02:06:00,53.2,52.7,30.05,West,276,0.0,0.0,98,0.00,,,0.00,Wunderground v.1.15,2013-05-10 06:06:00,
2013-05-10 02:11:00,53.0,52.2,30.04,West,276,0.0,0.0,97,0.00,,,0.00,Wunderground v.1.15,2013-05-10 06:11:00,
2013-05-10 02:16:00,53.0,52.5,30.05,West,276,0.0,0.0,98,0.00,,,0.00,Wunderground v.1.15,2013-05-10 06:16:00,
2013-05-10 02:21:00,52.9,52.4,30.04,West,276,0.0,0.0,98,0.00,,,0.00,Wunderground v.1.15,2013-05-10 06:21:00,
2013-05-10 02:26:00,52.8,52.3,30.04,West,276,0.0,0.0,98,0.00,,,0.00,Wunderground v.1.15,2013-05-10 06:26:00,
2013-05-10 02:31:00,52.6,52.1,30.04,West,276,0.0,0.0,98,0.00,,,0.00,Wunderground v.1.15,2013-05-10 06:31:00,
2013-05-10 02:36:00,52.6,52.1,30.05,West,276,0.0,0.0,98,0.00,,,0.00,Wunderground v.1.15,2013-05-10 06:36:00,
2013-05-10 02:41:00,52.5,52.0,30.04,West,276,0.0,0.0,98,0.00,,,0.00,Wunderground v.1.15,2013-05-10 06:41:00,
2013-05-10 02:46:00,52.5,52.0,30.04,West,276,0.0,0.0,98,0.00,,,0.00,Wunderground v.1.15,2013-05-10 06:46:00,
2013-05-10 02:51:00,52.4,51.9,30.04,West,276,0.0,0.0,98,0.00,,,0.00,Wunderground v.1.15,2013-05-10 06:51:00,
2013-05-10 02:56:00,52.4,51.9,30.05,West,276,0.0,0.0,98,0.00,,,0.00,Wunderground v.1.15,2013-05-10 06:56:00,
2013-05-10 03:01:00,52.3,51.8,30.05,West,276,0.0,0.0,98,0.00,,,0.00,Wunderground v.1.15,2013-05-10 07:01:00,
2013-05-10 03:06:00,52.0,51.2,30.05,West,276,0.0,0.0,97,0.00,,,0.00,Wunderground v.1.15,2013-05-10 07:06:00,
2013-05-10 03:11:00,51.9,51.4,30.05,West,276,0.0,0.0,98,0.00,,,0.00,Wunderground v.1.15,2013-05-10 07:11:00,
2013-05-10 03:16:00,52.0,51.5,30.05,West,276,0.0,0.0,98,0.00,,,0.00,Wunderground v.1.15,2013-05-10 07:16:00,
2013-05-10 03:21:00,51.9,51.4,30.05,West,276,0.0,0.0,98,0.00,,,0.00,Wunderground v.1.15,2013-05-10 07:21:00,
2013-05-10 03:26:00,51.7,51.2,30.05,West,276,0.0,0.0,98,0.00,,,0.00,Wunderground v.1.15,2013-05-10 07:26:00,
2013-05-10 03:31:00,51.5,51.0,30.05,West,276,0.0,0.0,98,0.00,,,0.00,Wunderground v.1.15,2013-05-10 07:31:00,
2013-05-10 03:36:00,51.5,51.0,30.05,West,276,0.0,0.0,98,0.00,,,0.00,Wunderground v.1.15,2013-05-10 07:36:00,
2013-05-10 03:41:00,51.6,51.1,30.05,West,276,0.0,0.0,98,0.00,,,0.00,Wunderground v.1.15,2013-05-10 07:41:00,
2013-05-10 03:46:00,51.5,51.0,30.05,West,276,0.0,0.0,98,0.00,,,0.00,Wunderground v.1.15,2013-05-10 07:46:00,
2013-05-10 03:51:00,51.4,50.9,30.05,West,276,0.0,0.0,98,0.00,,,0.00,Wunderground v.1.15,2013-05-10 07:51:00,
2013-05-10 03:56:00,51.4,50.9,30.05,West,276,0.0,0.0,98,0.00,,,0.00,Wunderground v.1.15,2013-05-10 07:56:00,
2013-05-10 04:01:00,51.2,50.7,30.05,West,276,0.0,0.0,98,0.00,,,0.00,Wunderground v.1.15,2013-05-10 08:01:00,
2013-05-10 04:06:00,51.1,50.6,30.05,West,276,0.0,0.0,98,0.00,,,0.00,Wunderground v.1.15,2013-05-10 08:06:00,
2013-05-10 04:11:00,51.0,50.5,30.05,West,276,0.0,0.0,98,0.00,,,0.00,Wunderground v.1.15,2013-05-10 08:11:00,
2013-05-10 04:16:00,51.2,50.7,30.05,West,276,0.0,0.0,98,0.00,,,0.00,Wunderground v.1.15,2013-05-10 08:16:00,
2013-05-10 04:21:00,51.2,50.7,30.05,West,276,0.0,0.0,98,0.00,,,0.00,Wunderground v.1.15,2013-05-10 08:21:00,
2013-05-10 04:26:00,51.0,50.5,30.05,West,276,0.0,0.0,98,0.00,,,0.00,Wunderground v.1.15,2013-05-10 08:26:00,
2013-05-10 04:31:00,50.9,50.4,30.05,West,276,0.0,0.0,98,0.00,,,0.00,Wunderground v.1.15,2013-05-10 08:31:00,
2013-05-10 04:36:00,50.7,50.2,30.05,West,276,0.0,0.0,98,0.00,,,0.00,Wunderground v.1.15,2013-05-10 08:36:00,
2013-05-10 04:41:00,50.6,50.1,30.05,West,276,0.0,0.0,98,0.00,,,0.00,Wunderground v.1.15,2013-05-10 08:41:00,
2013-05-10 04:46:00,50.4,49.9,30.05,West,276,0.0,0.0,98,0.00,,,0.00,Wunderground v.1.15,2013-05-10 08:46:00,
2013-05-10 04:51:00,50.3,49.8,30.05,West,276,0.0,0.0,98,0.00,,,0.00,Wunderground v.1.15,2013-05-10 08:51:00,
2013-05-10 04:56:00,50.2,49.7,30.05,West,276,0.0,0.0,98,0.00,,,0.00,Wunderground v.1.15,2013-05-10 08:56:00,
2013-05-10 05:01:00,50.2,49.7,30.05,West,276,0.0,0.0,98,0.00,,,0.00,Wunderground v.1.15,2013-05-10 09:01:00,
2013-05-10 05:06:00,50.3,49.8,30.04,West,276,0.0,0.0,98,0.00,,,0.00,Wunderground v.1.15,2013-05-10 09:06:00,
2013-05-10 05:11:00,50.1,49.6,30.04,West,276,0.0,0.0,98,0.00,,,0.00,Wunderground v.1.15,2013-05-10 09:11:00,
2013-05-10 05:16:00,50.1,49.6,30.04,West,276,0.0,0.0,98,0.00,,,0.00,Wunderground v.1.15,2013-05-10 09:16:00,
2013-05-10 05:21:00,50.0,49.5,30.04,West,276,0.0,0.0,98,0.00,,,0.00,Wunderground v.1.15,2013-05-10 09:21:00,
2013-05-10 05:26:00,50.1,49.8,30.04,West,276,0.0,0.0,99,0.00,,,0.00,Wunderground v.1.15,2013-05-10 09:26:00,
2013-05-10 05:31:00,50.2,49.9,30.05,West,276,0.0,0.0,99,0.00,,,0.00,Wunderground v.1.15,2013-05-10 09:31:00,
2013-05-10 05:36:00,50.2,49.9,30.04,West,276,0.0,0.0,99,0.00,,,0.00,Wunderground v.1.15,2013-05-10 09:36:00,
2013-05-10 05:41:00,50.1,49.8,30.05,West,276,0.0,0.0,99,0.00,,,0.00,Wunderground v.1.15,2013-05-10 09:41:00,
2013-05-10 05:46:00,50.0,49.7,30.05,West,276,0.0,0.0,99,0.00,,,0.00,Wunderground v.1.15,2013-05-10 09:46:00,
2013-05-10 05:51:00,49.9,49.6,30.05,West,276,0.0,0.0,99,0.00,,,0.00,Wunderground v.1.15,2013-05-10 09:51:00,
2013-05-10 05:56:00,49.9,49.6,30.05,West,276,0.0,0.0,99,0.00,,,0.00,Wunderground v.1.15,2013-05-10 09:56:00,
2013-05-10 06:01:00,50.0,49.7,30.05,West,276,0.0,0.0,99,0.00,,,0.00,Wunderground v.1.15,2013-05-10 10:01:00,
2013-05-10 06:06:00,50.1,49.8,30.05,West,276,0.0,0.0,99,0.00,,,0.00,Wunderground v.1.15,2013-05-10 10:06:00,
2013-05-10 06:11:00,50.3,50.0,30.05,West,276,0.0,0.0,99,0.00,,,0.00,Wunderground v.1.15,2013-05-10 10:11:00,
2013-05-10 06:16:00,50.4,50.1,30.05,West,276,0.0,0.0,99,0.00,,,0.00,Wunderground v.1.15,2013-05-10 10:16:00,
2013-05-10 06:21:00,50.5,50.2,30.05,West,276,0.0,0.0,99,0.00,,,0.00,Wunderground v.1.15,2013-05-10 10:21:00,
2013-05-10 06:26:00,50.8,50.5,30.05,West,276,0.0,0.0,99,0.00,,,0.00,Wunderground v.1.15,2013-05-10 10:26:00,
2013-05-10 06:31:00,50.9,50.6,30.05,West,276,0.0,0.0,99,0.00,,,0.00,Wunderground v.1.15,2013-05-10 10:31:00,
2013-05-10 06:36:00,51.3,51.0,30.05,West,276,0.0,0.0,99,0.00,,,0.00,Wunderground v.1.15,2013-05-10 10:36:00,
2013-05-10 06:41:00,51.8,51.5,30.05,ESE,114,0.0,1.0,99,0.00,,,0.00,Wunderground v.1.15,2013-05-10 10:41:00,
2013-05-10 06:46:00,52.1,51.8,30.05,SSE,148,0.0,1.0,99,0.00,,,0.00,Wunderground v.1.15,2013-05-10 10:46:00,
2013-05-10 06:51:00,52.8,52.5,30.05,ESE,105,0.0,0.0,99,0.00,,,0.00,Wunderground v.1.15,2013-05-10 10:51:00,
2013-05-10 06:56:00,53.2,52.9,30.05,East,86,0.0,1.0,99,0.00,,,0.00,Wunderground v.1.15,2013-05-10 10:56:00,
2013-05-10 07:01:00,53.5,53.2,30.05,ESE,107,0.0,0.0,99,0.00,,,0.00,Wunderground v.1.15,2013-05-10 11:01:00,
2013-05-10 07:06:00,53.7,53.4,30.05,WSW,238,0.0,1.0,99,0.00,,,0.00,Wunderground v.1.15,2013-05-10 11:06:00,
2013-05-10 07:11:00,54.0,53.7,30.06,WSW,240,0.0,1.0,99,0.00,,,0.00,Wunderground v.1.15,2013-05-10 11:11:00,
2013-05-10 07:16:00,54.3,54.0,30.06,ESE,123,0.0,1.0,99,0.00,,,0.00,Wunderground v.1.15,2013-05-10 11:16:00,
2013-05-10 07:21:00,54.9,54.6,30.06,East,100,1.0,1.0,99,0.00,,,0.00,Wunderground v.1.15,2013-05-10 11:21:00,
2013-05-10 07:26:00,55.5,54.9,30.06,ESE,117,0.0,1.0,98,0.00,,,0.00,Wunderground v.1.15,2013-05-10 11:26:00,
2013-05-10 07:31:00,55.9,54.8,30.06,ESE,109,1.0,2.0,96,0.00,,,0.00,Wunderground v.1.15,2013-05-10 11:31:00,
2013-05-10 07:36:00,56.3,55.2,30.05,ESE,114,2.0,2.0,96,0.00,,,0.00,Wunderground v.1.15,2013-05-10 11:36:00,
2013-05-10 07:41:00,56.7,55.3,30.05,WSW,250,0.0,1.0,95,0.00,,,0.00,Wunderground v.1.15,2013-05-10 11:41:00,
2013-05-10 07:46:00,57.0,55.3,30.05,SE,137,0.0,2.0,94,0.00,,,0.00,Wunderground v.1.15,2013-05-10 11:46:00,
2013-05-10 07:51:00,57.4,55.4,30.05,ESE,115,0.0,2.0,93,0.00,,,0.00,Wunderground v.1.15,2013-05-10 11:51:00,
2013-05-10 07:56:00,57.8,55.5,30.05,SE,139,2.0,3.0,92,0.00,,,0.00,Wunderground v.1.15,2013-05-10 11:56:00,
2013-05-10 08:01:00,58.2,55.6,30.05,ESE,105,1.0,2.0,91,0.00,,,0.00,Wunderground v.1.15,2013-05-10 12:01:00,
2013-05-10 08:06:00,58.6,56.0,30.04,WSW,255,0.0,3.0,91,0.00,,,0.00,Wunderground v.1.15,2013-05-10 12:06:00,
2013-05-10 08:11:00,59.0,56.1,30.04,WSW,254,0.0,2.0,90,0.00,,,0.00,Wunderground v.1.15,2013-05-10 12:11:00,
2013-05-10 08:16:00,59.4,56.5,30.04,West,263,1.0,4.0,90,0.00,,,0.00,Wunderground v.1.15,2013-05-10 12:16:00,
2013-05-10 08:21:00,59.5,55.9,30.05,ESE,109,1.0,1.0,88,0.00,,,0.00,Wunderground v.1.15,2013-05-10 12:21:00,
2013-05-10 08:26:00,59.7,56.1,30.05,ESE,113,1.0,2.0,88,0.00,,,0.00,Wunderground v.1.15,2013-05-10 12:26:00,
2013-05-10 08:31:00,60.2,56.3,30.05,West,261,1.0,2.0,87,0.00,,,0.00,Wunderground v.1.15,2013-05-10 12:31:00,
2013-05-10 08:36:00,60.7,56.5,30.05,East,89,1.0,3.0,86,0.00,,,0.00,Wunderground v.1.15,2013-05-10 12:36:00,
2013-05-10 08:41:00,61.0,56.5,30.05,SE,136,1.0,2.0,85,0.00,,,0.00,Wunderground v.1.15,2013-05-10 12:41:00,
2013-05-10 08:46:00,61.3,56.8,30.05,ESE,108,1.0,4.0,85,0.00,,,0.00,Wunderground v.1.15,2013-05-10 12:46:00,
2013-05-10 08:51:00,61.7,57.1,30.05,SE,133,0.0,3.0,85,0.00,,,0.00,Wunderground v.1.15,2013-05-10 12:51:00,
2013-05-10 08:56:00,62.2,57.3,30.05,ESE,108,0.0,3.0,84,0.00,,,0.00,Wunderground v.1.15,2013-05-10 12:56:00,
2013-05-10 09:01:00,62.7,57.5,30.05,East,95,0.0,1.0,83,0.00,,,0.00,Wunderground v.1.15,2013-05-10 13:01:00,
2013-05-10 09:06:00,63.1,57.5,30.04,ENE,69,2.0,2.0,82,0.00,,,0.00,Wunderground v.1.15,2013-05-10 13:06:00,
2013-05-10 09:11:00,63.6,57.3,30.04,SE,141,0.0,3.0,80,0.00,,,0.00,Wunderground v.1.15,2013-05-10 13:11:00,
2013-05-10 09:16:00,64.1,57.5,30.04,ESE,117,5.0,5.0,79,0.00,,,0.00,Wunderground v.1.15,2013-05-10 13:16:00,
2013-05-10 09:21:00,64.6,57.9,30.04,SW,226,2.0,4.0,79,0.00,,,0.00,Wunderground v.1.15,2013-05-10 13:21:00,
2013-05-10 09:26:00,64.8,57.8,30.04,SE,132,0.0,4.0,78,0.00,,,0.00,Wunderground v.1.15,2013-05-10 13:26:00,
2013-05-10 09:31:00,65.4,58.4,30.04,SE,127,0.0,1.0,78,0.00,,,0.00,Wunderground v.1.15,2013-05-10 13:31:00,
2013-05-10 09:36:00,65.8,58.4,30.04,SE,146,3.0,3.0,77,0.00,,,0.00,Wunderground v.1.15,2013-05-10 13:36:00,
2013-05-10 09:41:00,66.0,58.6,30.03,West,273,0.0,1.0,77,0.00,,,0.00,Wunderground v.1.15,2013-05-10 13:41:00,
2013-05-10 09:46:00,66.8,58.2,30.03,ESE,105,1.0,2.0,74,0.00,,,0.00,Wunderground v.1.15,2013-05-10 13:46:00,
2013-05-10 09:51:00,66.8,58.2,30.03,ESE,122,1.0,1.0,74,0.00,,,0.00,Wunderground v.1.15,2013-05-10 13:51:00,
2013-05-10 09:56:00,66.9,58.3,30.03,SE,136,0.0,4.0,74,0.00,,,0.00,Wunderground v.1.15,2013-05-10 13:56:00,
2013-05-10 10:01:00,67.2,57.9,30.03,SE,133,0.0,4.0,72,0.00,,,0.00,Wunderground v.1.15,2013-05-10 14:01:00,
2013-05-10 10:06:00,67.4,58.1,30.03,ESE,110,1.0,4.0,72,0.00,,,0.00,Wunderground v.1.15,2013-05-10 14:06:00,
2013-05-10 10:11:00,67.8,58.8,30.03,SE,134,2.0,3.0,73,0.00,,,0.00,Wunderground v.1.15,2013-05-10 14:11:00,
2013-05-10 10:16:00,68.5,59.1,30.02,ESE,113,0.0,3.0,72,0.00,,,0.00,Wunderground v.1.15,2013-05-10 14:16:00,
2013-05-10 10:21:00,68.6,57.6,30.03,East,91,2.0,5.0,68,0.00,,,0.00,Wunderground v.1.15,2013-05-10 14:21:00,
2013-05-10 10:26:00,68.4,57.0,30.03,East,97,4.0,5.0,67,0.00,,,0.00,Wunderground v.1.15,2013-05-10 14:26:00,
2013-05-10 10:31:00,68.3,57.7,30.02,SE,140,1.0,5.0,69,0.00,,,0.00,Wunderground v.1.15,2013-05-10 14:31:00,
2013-05-10 10:36:00,68.7,56.9,30.02,ESE,115,1.0,5.0,66,0.00,,,0.00,Wunderground v.1.15,2013-05-10 14:36:00,
2013-05-10 10:41:00,68.8,57.0,30.02,SSE,162,0.0,5.0,66,0.00,,,0.00,Wunderground v.1.15,2013-05-10 14:41:00,
2013-05-10 10:46:00,69.1,57.3,30.02,ESE,105,2.0,6.0,66,0.00,,,0.00,Wunderground v.1.15,2013-05-10 14:46:00,
2013-05-10 10:51:00,69.3,57.5,30.02,ESE,102,3.0,5.0,66,0.00,,,0.00,Wunderground v.1.15,2013-05-10 14:51:00,
2013-05-10 10:56:00,69.6,58.6,30.02,SE,146,0.0,5.0,68,0.00,,,0.00,Wunderground v.1.15,2013-05-10 14:56:00,
2013-05-10 11:01:00,69.6,57.3,30.02,ESE,103,3.0,5.0,65,0.00,,,0.00,Wunderground v.1.15,2013-05-10 15:01:00,
2013-05-10 11:06:00,69.5,57.2,30.01,East,96,2.0,5.0,65,0.00,,,0.00,Wunderground v.1.15,2013-05-10 15:06:00,
2013-05-10 11:11:00,69.5,57.2,30.01,East,82,3.0,5.0,65,0.00,,,0.00,Wunderground v.1.15,2013-05-10 15:11:00,
2013-05-10 11:16:00,69.4,57.1,30.01,East,80,6.0,6.0,65,0.00,,,0.00,Wunderground v.1.15,2013-05-10 15:16:00,
2013-05-10 11:21:00,69.1,56.4,30.01,ESE,114,5.0,6.0,64,0.00,,,0.00,Wunderground v.1.15,2013-05-10 15:21:00,
2013-05-10 11:26:00,69.1,56.8,30.01,East,101,6.0,6.0,65,0.00,,,0.00,Wunderground v.1.15,2013-05-10 15:26:00,
2013-05-10 11:31:00,69.2,57.4,30.00,ESE,103,0.0,2.0,66,0.00,,,0.00,Wunderground v.1.15,2013-05-10 15:31:00,
2013-05-10 11:36:00,69.1,57.3,30.00,SSE,152,1.0,5.0,66,0.00,,,0.00,Wunderground v.1.15,2013-05-10 15:36:00,
2013-05-10 11:41:00,69.2,56.9,30.00,SSE,157,1.0,5.0,65,0.00,,,0.00,Wunderground v.1.15,2013-05-10 15:41:00,
2013-05-10 11:46:00,69.4,57.5,30.00,ESE,122,1.0,5.0,66,0.00,,,0.00,Wunderground v.1.15,2013-05-10 15:46:00,
2013-05-10 11:51:00,69.5,57.2,30.00,East,93,0.0,1.0,65,0.00,,,0.00,Wunderground v.1.15,2013-05-10 15:51:00,
2013-05-10 11:56:00,69.5,56.8,30.00,East,96,4.0,7.0,64,0.00,,,0.00,Wunderground v.1.15,2013-05-10 15:56:00,
2013-05-10 12:01:00,69.5,56.3,30.00,ESE,108,1.0,3.0,63,0.00,,,0.00,Wunderground v.1.15,2013-05-10 16:01:00,
2013-05-10 12:06:00,69.7,57.8,30.00,East,87,0.0,3.0,66,0.00,,,0.00,Wunderground v.1.15,2013-05-10 16:06:00,
2013-05-10 12:11:00,69.9,56.7,30.00,ESE,102,1.0,4.0,63,0.00,,,0.00,Wunderground v.1.15,2013-05-10 16:11:00,
2013-05-10 12:16:00,70.0,56.4,29.99,SSE,159,0.0,4.0,62,0.00,,,0.00,Wunderground v.1.15,2013-05-10 16:16:00,
2013-05-10 12:21:00,70.1,57.4,29.99,East,92,1.0,2.0,64,0.00,,,0.00,Wunderground v.1.15,2013-05-10 16:21:00,
2013-05-10 12:26:00,70.2,58.3,29.99,East,88,1.0,2.0,66,0.00,,,0.00,Wunderground v.1.15,2013-05-10 16:26:00,
2013-05-10 12:31:00,70.2,57.9,29.99,East,79,5.0,6.0,65,0.00,,,0.00,Wunderground v.1.15,2013-05-10 16:31:00,
2013-05-10 12:36:00,70.0,57.3,29.99,WSW,240,1.0,6.0,64,0.00,,,0.00,Wunderground v.1.15,2013-05-10 16:36:00,
2013-05-10 12:41:00,69.7,58.3,30.00,WSW,248,0.0,3.0,67,0.00,,,0.00,Wunderground v.1.15,2013-05-10 16:41:00,
2013-05-10 12:46:00,69.3,57.9,30.00,SSW,193,0.0,4.0,67,0.00,,,0.00,Wunderground v.1.15,2013-05-10 16:46:00,
2013-05-10 12:51:00,68.9,58.7,30.00,WSW,256,0.0,1.0,70,0.00,,,0.00,Wunderground v.1.15,2013-05-10 16:51:00,
2013-05-10 12:56:00,68.4,59.0,30.00,SSE,168,2.0,3.0,72,0.00,,,0.00,Wunderground v.1.15,2013-05-10 16:56:00,
2013-05-10 13:01:00,67.9,58.1,30.00,SSW,198,0.0,3.0,71,0.00,,,0.00,Wunderground v.1.15,2013-05-10 17:01:00,
2013-05-10 13:06:00,67.4,56.1,30.00,SW,232,2.0,3.0,67,0.00,,,0.00,Wunderground v.1.15,2013-05-10 17:06:00,
2013-05-10 13:11:00,67.2,55.9,30.00,SSW,207,0.0,3.0,67,0.00,,,0.00,Wunderground v.1.15,2013-05-10 17:11:00,
2013-05-10 13:16:00,67.0,56.1,30.00,SW,226,0.0,7.0,68,0.00,,,0.00,Wunderground v.1.15,2013-05-10 17:16:00,
2013-05-10 13:21:00,66.6,56.1,30.00,South,182,1.0,1.0,69,0.00,,,0.00,Wunderground v.1.15,2013-05-10 17:21:00,
2013-05-10 13:26:00,66.4,55.5,29.99,WSW,252,0.0,3.0,68,0.00,,,0.00,Wunderground v.1.15,2013-05-10 17:26:00,
2013-05-10 13:31:00,66.2,56.1,29.99,ESE,111,0.0,1.0,70,0.00,,,0.00,Wunderground v.1.15,2013-05-10 17:31:00,
2013-05-10 13:36:00,65.9,56.2,29.99,ESE,110,0.0,1.0,71,0.00,,,0.00,Wunderground v.1.15,2013-05-10 17:36:00,
2013-05-10 13:41:00,65.8,56.5,29.98,NNW,327,0.0,3.0,72,0.00,,,0.00,Wunderground v.1.15,2013-05-10 17:41:00,
2013-05-10 13:46:00,65.9,56.6,29.98,WSW,246,0.0,3.0,72,0.00,,,0.00,Wunderground v.1.15,2013-05-10 17:46:00,
2013-05-10 13:51:00,66.0,56.7,29.98,West,259,0.0,2.0,72,0.00,,,0.00,Wunderground v.1.15,2013-05-10 17:51:00,
2013-05-10 13:56:00,66.7,57.8,29.98,SE,144,0.0,2.0,73,0.00,,,0.00,Wunderground v.1.15,2013-05-10 17:56:00,
2013-05-10 14:01:00,67.6,57.1,29.97,West,272,1.0,3.0,69,0.00,,,0.00,Wunderground v.1.15,2013-05-10 18:01:00,
2013-05-10 14:06:00,68.8,58.2,29.97,East,82,1.0,3.0,69,0.00,,,0.00,Wunderground v.1.15,2013-05-10 18:06:00,
2013-05-10 14:11:00,69.9,58.0,29.97,ENE,58,1.0,5.0,66,0.00,,,0.00,Wunderground v.1.15,2013-05-10 18:11:00,
2013-05-10 14:16:00,70.9,58.1,29.97,East,100,2.0,5.0,64,0.00,,,0.00,Wunderground v.1.15,2013-05-10 18:16:00,
2013-05-10 14:21:00,71.9,57.7,29.96,SE,130,0.0,6.0,61,0.00,,,0.00,Wunderground v.1.15,2013-05-10 18:21:00,
2013-05-10 14:26:00,72.8,58.1,29.96,ESE,111,2.0,7.0,60,0.00,,,0.00,Wunderground v.1.15,2013-05-10 18:26:00,
2013-05-10 14:31:00,73.8,57.6,29.96,SW,219,1.0,5.0,57,0.00,,,0.00,Wunderground v.1.15,2013-05-10 18:31:00,
2013-05-10 14:36:00,74.8,57.0,29.96,ENE,70,4.0,9.0,54,0.00,,,0.00,Wunderground v.1.15,2013-05-10 18:36:00,
2013-05-10 14:41:00,75.2,57.9,29.95,WNW,303,2.0,4.0,55,0.00,,,0.00,Wunderground v.1.15,2013-05-10 18:41:00,
2013-05-10 14:46:00,75.6,56.2,29.95,SSW,195,3.0,7.0,51,0.00,,,0.00,Wunderground v.1.15,2013-05-10 18:46:00,
2013-05-10 14:51:00,75.4,54.9,29.95,NW,309,2.0,5.0,49,0.00,,,0.00,Wunderground v.1.15,2013-05-10 18:51:00,
2013-05-10 14:56:00,75.4,55.5,29.95,WSW,244,2.0,10.0,50,0.00,,,0.00,Wunderground v.1.15,2013-05-10 18:56:00,
2013-05-10 15:01:00,75.3,54.8,29.94,SW,233,6.0,9.0,49,0.00,,,0.00,Wunderground v.1.15,2013-05-10 19:01:00,
2013-05-10 15:06:00,75.5,54.4,29.94,SSW,207,2.0,9.0,48,0.00,,,0.00,Wunderground v.1.15,2013-05-10 19:06:00,
2013-05-10 15:11:00,75.1,55.2,29.94,SW,214,4.0,7.0,50,0.00,,,0.00,Wunderground v.1.15,2013-05-10 19:11:00,
2013-05-10 15:16:00,75.3,54.8,29.93,SE,135,2.0,7.0,49,0.00,,,0.00,Wunderground v.1.15,2013-05-10 19:16:00,
2013-05-10 15:21:00,75.5,54.4,29.93,SSW,193,1.0,8.0,48,0.00,,,0.00,Wunderground v.1.15,2013-05-10 19:21:00,
2013-05-10 15:25:00,75.3,55.4,29.93,NNE,25,0.0,9.0,50,0.00,,,0.00,Wunderground v.1.15,2013-05-10 19:25:00,
2013-05-10 15:30:00,75.1,54.6,29.93,SW,225,3.0,11.0,49,0.00,,,0.00,Wunderground v.1.15,2013-05-10 19:30:00,
2013-05-10 15:35:00,74.5,54.6,29.92,WNW,301,3.0,11.0,50,0.00,,,0.00,Wunderground v.1.15,2013-05-10 19:35:00,
2013-05-10 15:40:00,74.4,55.6,29.92,WSW,238,1.0,3.0,52,0.00,,,0.00,Wunderground v.1.15,2013-05-10 19:40:00,
2013-05-10 15:45:00,74.0,54.7,29.92,ESE,113,3.0,8.0,51,0.00,,,0.00,Wunderground v.1.15,2013-05-10 19:45:00,
2013-05-10 15:50:00,73.8,54.5,29.92,West,271,3.0,7.0,51,0.00,,,0.00,Wunderground v.1.15,2013-05-10 19:50:00,
2013-05-10 15:55:00,73.3,54.6,29.92,SE,134,2.0,7.0,52,0.00,,,0.00,Wunderground v.1.15,2013-05-10 19:55:00,
2013-05-10 16:00:00,72.9,54.8,29.92,WSW,239,3.0,6.0,53,0.00,,,0.00,Wunderground v.1.15,2013-05-10 20:00:00,
2013-05-10 16:05:00,72.6,55.0,29.91,West,264,0.0,6.0,54,0.00,,,0.00,Wunderground v.1.15,2013-05-10 20:05:00,
2013-05-10 16:10:00,72.4,55.3,29.91,SE,143,2.0,4.0,55,0.00,,,0.00,Wunderground v.1.15,2013-05-10 20:10:00,
2013-05-10 16:15:00,72.3,55.2,29.91,South,189,0.0,4.0,55,0.00,,,0.00,Wunderground v.1.15,2013-05-10 20:15:00,
2013-05-10 16:20:00,72.2,55.1,29.91,SW,236,0.0,2.0,55,0.00,,,0.00,Wunderground v.1.15,2013-05-10 20:20:00,
2013-05-10 16:25:00,72.0,55.4,29.91,East,94,0.0,4.0,56,0.00,,,0.00,Wunderground v.1.15,2013-05-10 20:25:00,
2013-05-10 16:30:00,72.0,55.4,29.90,ESE,103,0.0,3.0,56,0.00,,,0.00,Wunderground v.1.15,2013-05-10 20:30:00,
2013-05-10 16:35:00,72.3,55.7,29.90,ENE,65,1.0,3.0,56,0.00,,,0.00,Wunderground v.1.15,2013-05-10 20:35:00,
2013-05-10 16:40:00,72.6,55.5,29.90,South,169,0.0,6.0,55,0.00,,,0.00,Wunderground v.1.15,2013-05-10 20:40:00,
2013-05-10 16:45:00,73.1,56.0,29.89,West,266,2.0,6.0,55,0.00,,,0.00,Wunderground v.1.15,2013-05-10 20:45:00,
2013-05-10 16:50:00,73.5,56.3,29.90,WNW,294,0.0,1.0,55,0.00,,,0.00,Wunderground v.1.15,2013-05-10 20:50:00,
2013-05-10 16:55:00,73.8,56.6,29.89,WNW,293,0.0,5.0,55,0.00,,,0.00,Wunderground v.1.15,2013-05-10 20:55:00,
2013-05-10 17:00:00,74.0,56.8,29.89,WSW,242,2.0,2.0,55,0.00,,,0.00,Wunderground v.1.15,2013-05-10 21:00:00,
2013-05-10 17:05:00,74.1,56.4,29.89,WSW,241,1.0,6.0,54,0.00,,,0.00,Wunderground v.1.15,2013-05-10 21:05:00,
2013-05-10 17:10:00,74.0,56.3,29.89,SE,131,3.0,4.0,54,0.00,,,0.00,Wunderground v.1.15,2013-05-10 21:10:00,
2013-05-10 17:15:00,74.0,56.8,29.89,WNW,295,0.0,6.0,55,0.00,,,0.00,Wunderground v.1.15,2013-05-10 21:15:00,
2013-05-10 17:20:00,73.9,56.7,29.88,ESE,117,0.0,2.0,55,0.00,,,0.00,Wunderground v.1.15,2013-05-10 21:20:00,
2013-05-10 17:25:00,73.9,56.2,29.88,WNW,292,0.0,3.0,54,0.00,,,0.00,Wunderground v.1.15,2013-05-10 21:25:00,
2013-05-10 17:30:00,73.6,57.4,29.88,SW,231,0.0,2.0,57,0.00,,,0.00,Wunderground v.1.15,2013-05-10 21:30:00,
2013-05-10 17:35:00,73.4,57.2,29.88,SE,133,0.0,5.0,57,0.00,,,0.00,Wunderground v.1.15,2013-05-10 21:35:00,
2013-05-10 17:40:00,73.3,57.1,29.88,SW,233,3.0,4.0,57,0.00,,,0.00,Wunderground v.1.15,2013-05-10 21:40:00,
2013-05-10 17:45:00,73.0,57.3,29.87,West,273,0.0,5.0,58,0.00,,,0.00,Wunderground v.1.15,2013-05-10 21:45:00,
2013-05-10 17:50:00,72.8,57.6,29.87,SE,129,1.0,2.0,59,0.00,,,0.00,Wunderground v.1.15,2013-05-10 21:50:00,
2013-05-10 17:55:00,72.4,56.3,29.88,ESE,111,3.0,5.0,57,0.00,,,0.00,Wunderground v.1.15,2013-05-10 21:55:00,
2013-05-10 17:58:00,72.0,56.4,29.88,ESE,116,2.0,5.0,58,0.00,,,0.00,Wunderground v.1.15,2013-05-10 21:58:00,
2013-05-10 18:03:00,71.4,56.3,29.88,SE,145,3.0,5.0,59,0.00,,,0.00,Wunderground v.1.15,2013-05-10 22:03:00,
2013-05-10 18:08:00,71.1,56.5,29.88,ESE,116,2.0,5.0,60,0.00,,,0.00,Wunderground v.1.15,2013-05-10 22:08:00,
2013-05-10 18:13:00,70.9,56.3,29.88,ESE,113,1.0,5.0,60,0.00,,,0.00,Wunderground v.1.15,2013-05-10 22:13:00,
2013-05-10 18:18:00,70.7,56.1,29.87,ESE,114,1.0,5.0,60,0.00,,,0.00,Wunderground v.1.15,2013-05-10 22:18:00,
2013-05-10 18:23:00,70.6,56.5,29.87,ESE,111,2.0,4.0,61,0.00,,,0.00,Wunderground v.1.15,2013-05-10 22:23:00,
2013-05-10 18:28:00,70.3,57.5,29.87,SE,124,0.0,4.0,64,0.00,,,0.00,Wunderground v.1.15,2013-05-10 22:28:00,
2013-05-10 18:33:00,69.7,57.4,29.87,SE,124,0.0,3.0,65,0.00,,,0.01,Wunderground v.1.15,2013-05-10 22:33:00,
2013-05-10 18:38:00,69.1,56.8,29.87,East,101,1.0,5.0,65,0.00,,,0.01,Wunderground v.1.15,2013-05-10 22:38:00,
2013-05-10 18:43:00,68.5,57.5,29.87,ESE,118,1.0,3.0,68,0.05,,,0.01,Wunderground v.1.15,2013-05-10 22:43:00,
2013-05-10 18:48:00,67.7,59.1,29.87,SSE,159,0.0,3.0,74,0.05,,,0.02,Wunderground v.1.15,2013-05-10 22:48:00,
2013-05-10 18:53:00,66.9,58.0,29.87,ESE,118,1.0,3.0,73,0.11,,,0.03,Wunderground v.1.15,2013-05-10 22:53:00,
2013-05-10 18:58:00,66.2,58.4,29.87,SE,139,0.0,3.0,76,0.06,,,0.03,Wunderground v.1.15,2013-05-10 22:58:00,
2013-05-10 19:03:00,65.7,59.0,29.87,South,172,0.0,2.0,79,0.05,,,0.04,Wunderground v.1.15,2013-05-10 23:03:00,
2013-05-10 19:08:00,65.4,58.4,29.86,East,101,2.0,4.0,78,0.05,,,0.04,Wunderground v.1.15,2013-05-10 23:08:00,
2013-05-10 19:13:00,65.3,58.6,29.86,East,99,2.0,3.0,79,0.05,,,0.04,Wunderground v.1.15,2013-05-10 23:13:00,
2013-05-10 19:49:00,64.4,58.1,29.92,WNW,302,5.0,5.0,80,0.19,,,0.09,Wunderground v.1.15,2013-05-10 23:49:00,
2013-05-10 19:54:00,63.5,58.2,29.91,WNW,289,4.0,5.0,83,0.14,,,0.11,Wunderground v.1.15,2013-05-10 23:54:00,
2013-05-10 20:01:00,62.8,58.5,29.90,ESE,110,1.0,1.0,86,0.11,,,0.11,Wunderground v.1.15,2013-05-11 00:01:00,
2013-05-10 20:07:00,62.0,58.4,29.89,ESE,108,0.0,1.0,88,0.17,,,0.13,Wunderground v.1.15,2013-05-11 00:07:00,
2013-05-10 20:12:00,61.6,57.7,29.90,SW,226,1.0,1.0,87,0.12,,,0.14,Wunderground v.1.15,2013-05-11 00:12:00,
2013-05-10 20:17:00,61.4,58.1,29.90,SE,141,1.0,3.0,89,0.21,,,0.16,Wunderground v.1.15,2013-05-11 00:17:00,
2013-05-10 20:23:00,61.1,58.1,29.89,East,99,0.0,1.0,90,0.12,,,0.17,Wunderground v.1.15,2013-05-11 00:23:00,
2013-05-10 20:28:00,60.9,57.6,29.88,West,276,0.0,2.0,89,0.08,,,0.18,Wunderground v.1.15,2013-05-11 00:28:00,
2013-05-10 20:33:00,60.9,57.9,29.89,SW,236,1.0,2.0,90,0.08,,,0.19,Wunderground v.1.15,2013-05-11 00:33:00,
2013-05-10 20:39:00,60.7,58.1,29.89,SW,227,0.0,2.0,91,0.12,,,0.20,Wunderground v.1.15,2013-05-11 00:39:00,
2013-05-10 20:44:00,60.7,58.1,29.90,WSW,237,0.0,2.0,91,0.18,,,0.21,Wunderground v.1.15,2013-05-11 00:44:00,
2013-05-10 20:49:00,60.8,58.2,29.91,WSW,249,1.0,3.0,91,0.13,,,0.22,Wunderground v.1.15,2013-05-11 00:49:00,
2013-05-10 20:55:00,61.1,58.5,29.90,NW,305,2.0,4.0,91,0.09,,,0.23,Wunderground v.1.15,2013-05-11 00:55:00,
2013-05-10 21:01:00,61.3,58.7,29.90,West,267,2.0,2.0,91,0.11,,,0.24,Wunderground v.1.15,2013-05-11 01:01:00,
2013-05-10 21:06:00,61.2,58.6,29.90,WNW,285,1.0,2.0,91,0.24,,,0.27,Wunderground v.1.15,2013-05-11 01:06:00,
2013-05-10 21:11:00,61.1,58.5,29.90,SW,229,1.0,1.0,91,0.35,,,0.30,Wunderground v.1.15,2013-05-11 01:11:00,
2013-05-10 21:16:00,61.0,58.4,29.90,SSE,150,1.0,1.0,91,0.31,,,0.32,Wunderground v.1.15,2013-05-11 01:16:00,
2013-05-10 21:22:00,60.8,58.5,29.89,South,181,0.0,0.0,92,0.14,,,0.33,Wunderground v.1.15,2013-05-11 01:22:00,
2013-05-10 21:27:00,60.6,58.6,29.89,SSE,159,0.0,0.0,93,0.08,,,0.33,Wunderground v.1.15,2013-05-11 01:27:00,
2013-05-10 21:33:00,60.4,58.4,29.89,SE,143,0.0,0.0,93,0.05,,,0.33,Wunderground v.1.15,2013-05-11 01:33:00,
2013-05-10 21:38:00,60.3,58.6,29.89,ESE,117,0.0,0.0,94,0.00,,,0.33,Wunderground v.1.15,2013-05-11 01:38:00,
2013-05-10 21:43:00,60.3,58.6,29.89,ESE,120,0.0,1.0,94,0.00,,,0.33,Wunderground v.1.15,2013-05-11 01:43:00,
2013-05-10 21:48:00,60.2,58.5,29.88,ESE,110,0.0,3.0,94,0.00,,,0.34,Wunderground v.1.15,2013-05-11 01:48:00,
2013-05-10 21:54:00,60.3,58.6,29.88,WSW,248,1.0,1.0,94,0.00,,,0.34,Wunderground v.1.15,2013-05-11 01:54:00,
2013-05-10 22:01:00,60.3,58.6,29.88,ESE,121,1.0,4.0,94,0.00,,,0.34,Wunderground v.1.15,2013-05-11 02:01:00,
2013-05-10 22:06:00,60.4,59.0,29.88,ENE,77,1.0,4.0,95,0.00,,,0.34,Wunderground v.1.15,2013-05-11 02:06:00,
2013-05-10 22:12:00,60.3,58.6,29.88,ESE,104,2.0,3.0,94,0.00,,,0.34,Wunderground v.1.15,2013-05-11 02:12:00,
2013-05-10 22:17:00,60.3,58.6,29.88,ESE,112,1.0,3.0,94,0.00,,,0.34,Wunderground v.1.15,2013-05-11 02:17:00,
2013-05-10 22:22:00,60.2,58.5,29.88,ESE,123,1.0,2.0,94,0.00,,,0.35,Wunderground v.1.15,2013-05-11 02:22:00,
2013-05-10 22:27:00,60.2,58.5,29.87,ESE,105,1.0,4.0,94,0.00,,,0.35,Wunderground v.1.15,2013-05-11 02:27:00,
2013-05-10 22:33:00,60.1,58.7,29.87,WSW,252,0.0,1.0,95,0.04,,,0.35,Wunderground v.1.15,2013-05-11 02:33:00,
2013-05-10 22:38:00,60.2,58.8,29.86,East,98,0.0,2.0,95,0.04,,,0.36,Wunderground v.1.15,2013-05-11 02:38:00,
2013-05-10 22:44:00,60.3,58.9,29.86,ESE,103,1.0,2.0,95,0.06,,,0.37,Wunderground v.1.15,2013-05-11 02:44:00,
2013-05-10 22:49:00,60.3,58.9,29.86,East,96,0.0,2.0,95,0.06,,,0.37,Wunderground v.1.15,2013-05-11 02:49:00,
2013-05-10 22:54:00,60.3,58.9,29.86,ESE,108,0.0,0.0,95,0.08,,,0.38,Wunderground v.1.15,2013-05-11 02:54:00,
2013-05-10 23:01:00,60.3,58.9,29.86,ESE,109,0.0,1.0,95,0.10,,,0.39,Wunderground v.1.15,2013-05-11 03:01:00,
2013-05-10 23:07:00,60.3,59.2,29.85,ESE,114,0.0,1.0,96,0.05,,,0.39,Wunderground v.1.15,2013-05-11 03:07:00,
2013-05-10 23:12:00,60.3,59.2,29.85,ESE,113,0.0,0.0,96,0.04,,,0.40,Wunderground v.1.15,2013-05-11 03:12:00,
2013-05-10 23:17:00,60.3,59.2,29.85,SE,145,0.0,0.0,96,0.10,,,0.41,Wunderground v.1.15,2013-05-11 03:17:00,
2013-05-10 23:23:00,60.3,59.2,29.85,SE,145,0.0,0.0,96,0.14,,,0.42,Wunderground v.1.15,2013-05-11 03:23:00,
2013-05-10 23:28:00,60.3,59.2,29.85,SE,144,0.0,0.0,96,0.14,,,0.43,Wunderground v.1.15,2013-05-11 03:28:00,
2013-05-10 23:33:00,60.3,59.2,29.84,SE,144,0.0,0.0,96,0.12,,,0.44,Wunderground v.1.15,2013-05-11 03:33:00,
2013-05-10 23:38:00,60.4,59.3,29.84,West,278,0.0,0.0,96,0.16,,,0.46,Wunderground v.1.15,2013-05-11 03:38:00,
2013-05-10 23:44:00,60.4,59.3,29.83,WSW,243,0.0,0.0,96,0.11,,,0.47,Wunderground v.1.15,2013-05-11 03:44:00,
2013-05-10 23:49:00,60.5,59.4,29.83,ESE,117,0.0,1.0,96,0.10,,,0.48,Wunderground v.1.15,2013-05-11 03:49:00,
2013-05-10 23:55:00,60.5,59.4,29.83,ESE,117,0.0,0.0,96,0.10,,,0.48,Wunderground v.1.15,2013-05-11 03:55:00,